Location: Luz Observatory
(34.5000°N, 117.2833°W)
Time: 12:42:50
(UTC-07:00)

Daily predictions for brighter satellites

Satellite Brightness Start Highest point End
(mag) Time Altitude Azimuth Time Altitude Azimuth Time Altitude Azimuth
Cosmos 909 Rocket 4.5 20:08:50 10° NNW 20:15:18 79° WSW 20:22:54 10° SSE
Cosmos 1802 Rocket 4.4 20:12:45 10° SSW 20:19:02 72° W 20:25:27 10° N
CENTAUR R/B 3.0 20:16:48 10° S 20:21:52 33° ESE 20:27:28 10° NE
Okean 1 3.4 20:20:01 10° S 20:24:00 61° E 20:28:01 10° NNE
Cosmos 2233 Rocket 4.3 20:21:08 10° SSE 20:26:56 47° E 20:32:49 10° NNE
Resurs 01 Rocket 2.1 20:23:41 10° SE 20:27:49 42° ENE 20:31:59 10° N
Cosmos 1300 Rocket 3.7 20:23:43 10° N 20:28:04 80° W 20:32:23 10° S
Envisat 3.5 20:26:29 10° S 20:31:30 64° W 20:36:33 10° NNW
H-2A R/B 3.9 20:30:18 10° E 20:32:23 13° ENE 20:34:29 10° NE
Cosmos 2208 Rocket 4.1 20:28:34 10° SSW 20:33:45 86° WNW 20:38:57 10° NNE
ATLAS 3B R/B 4.2 20:30:03 10° SW 20:36:52 44° NW 20:43:28 10° NNE
Cosmos 1939 Rocket 2.9 20:34:17 10° SSE 20:38:23 80° ENE 20:42:32 10° N
SL-24 R/B 4.5 20:35:37 10° SSE 20:40:29 75° E 20:45:43 10° N
YAOGAN 6 2.9 20:40:29 10° S 20:44:10 71° W 20:47:50 10° NNW
NOAA 11 4.4 20:40:34 10° SSE 20:45:53 54° ENE 20:51:11 10° N
Cosmos 1242 Rocket 3.2 20:43:18 10° N 20:46:41 35° ENE 20:49:12 15° SE
Cosmos 2322 Rocket 2.7 20:44:14 10° N 20:49:35 43° ENE 20:53:53 15° SE
Cosmos 1340 Rocket 3.8 20:54:00 16° SE 20:56:27 29° E 20:59:58 10° NNE
GPS 2-05 Rocket1 3.2 20:54:00 10° SW 20:57:07 39° SSE 20:59:08 19° E
SL-16 R/B 2.4 20:54:17 10° NNW 20:59:52 57° ENE 21:04:04 18° SE
SJ-11-01 4.4 20:59:41 10° S 21:04:23 79° WSW 21:09:09 10° NNW
OAO 1 Rocket 4.5 20:59:43 10° W 21:05:03 84° N 21:09:46 14° E
EPKM 3.5 21:00:14 10° WSW 21:05:45 25° SSW 21:07:01 20° SSE
Cosmos 540 Rocket 4.2 21:02:22 14° SSE 21:06:07 33° E 21:10:42 10° NE
Resurs 1-3 4.2 21:05:19 10° S 21:09:37 56° W 21:13:56 10° NNW
Spot 2 Rocket 3.5 21:05:19 12° SSE 21:10:01 89° WSW 21:15:05 10° NNW
ATLAS CENTAUR R/B 4.4 21:08:55 10° WSW 21:14:38 65° NW 21:32:05 10° NE
Meteor 1-13 Rocket 4.3 21:09:33 10° S 21:15:26 79° E 21:21:24 10° N
Cosmos 1763 Rocket 3.8 21:11:53 10° SSW 21:17:10 70° WNW 21:22:27 10° NNE
Cosmos 1937 Rocket 3.4 21:13:31 10° NNW 21:18:39 71° ENE 21:21:45 24° SSE
Cosmos 1455 Rocket 3.5 21:15:38 10° N 21:19:48 42° E 21:21:29 29° SE
Cosmos 1464 Rocket 4.2 21:14:38 15° SSE 21:19:49 53° E 21:25:59 10° NNE
USA 186 4.5 21:17:43 10° SW 21:20:01 18° W 21:22:22 10° NW
ERS-2 3.8 21:19:29 10° SSW 21:22:46 30° W 21:26:04 10° NW
Cosmos 841 Rocket 3.5 21:18:33 10° SSW 21:23:46 89° WNW 21:29:04 10° NNE
Cosmos 2298 Rocket 4.1 21:19:31 10° N 21:24:47 63° ENE 21:27:31 28° SE
Chunghua 1 4.4 21:22:30 10° WSW 21:26:11 69° SSE 21:27:40 34° E
Cosmos 1975 Rocket 4.0 21:23:08 10° SSW 21:27:18 46° W 21:31:28 10° N
Tiangong 2 3.8 21:27:15 10° NW 21:29:30 18° N 21:31:45 10° NE
Cosmos 1666 3.9 21:26:55 10° NNW 21:30:34 40° W 21:33:40 13° SSW
DELTA 2 R/B (1) 3.9 21:26:01 10° SW 21:31:10 40° SSE 21:34:19 21° E
Shenzhou-11 Module 3.5 21:29:08 10° NW 21:31:48 29° NNE 21:32:39 24° NE
Cosmos 1975 4.4 21:28:19 10° NNW 21:31:57 33° W 21:35:32 10° SSW
USA 32 3.9 21:32:05 10° N 21:37:19 74° E 21:39:57 30° SSE
Cosmos 1891 Rocket 4.5 21:33:29 20° S 21:37:47 66° E 21:44:03 10° NNE
Cosmos 2360 Rocket 2.6 21:33:11 10° N 21:38:37 48° ENE 21:40:45 33° ESE
Cosmos 2219 Rocket 4.1 21:38:36 10° NNE 21:41:30 14° NE 21:43:21 12° ENE
Atlas Centaur 2 2.7 21:38:43 10° WSW 21:41:23 21° SSW 21:41:23 21° SSW
Meteor 2-20 4.4 21:37:44 10° N 21:43:54 84° W 21:47:48 24° S
Cosmos 292 Rocket 4.4 21:40:27 10° SSW 21:45:05 54° WNW 21:49:46 10° N
Cosmos 1544 Rocket 3.5 21:42:53 10° N 21:47:20 86° W 21:48:54 40° S
USA 234 4.0 21:41:35 10° NE 21:47:55 54° NW 21:54:16 10° WSW
Meteor 2-20 Rocket 4.4 21:42:34 10° N 21:48:44 80° E 21:51:47 32° SSE
MetOp-A 4.1 21:46:14 32° SSE 21:48:50 87° WSW 21:54:13 10° NNW
ERS-1 Rocket 3.1 21:47:43 41° SE 21:49:13 60° ENE 21:54:10 10° N
Cosmos 1356 3.8 21:49:20 38° SW 21:50:24 60° W 21:53:50 10° N
Meteor 2-9 Rocket 4.4 21:48:03 10° NNW 21:53:22 66° W 21:56:20 27° S
Helios 1B rocket 3.5 21:52:48 10° NNE 21:55:37 31° ENE 21:55:37 31° ENE
SJ 16-02 1.8 21:52:57 10° N 21:57:13 43° ENE 21:57:27 43° E
Cosmos 1536 Rocket 3.7 21:58:59 37° SSW 22:00:40 72° W 22:05:07 10° N
Resurs 01 Rocket 4.3 22:02:12 10° SW 22:04:26 14° W 22:06:43 10° WNW
Meteor 1-23 Rocket 4.4 22:04:04 23° SSW 22:07:34 69° W 22:13:07 10° N
SPOT 1/Viking Rocket 3.7 22:06:57 49° ESE 22:07:43 53° ENE 22:12:44 10° N
Aureole 2 Rocket 3.8 22:05:13 10° NW 22:07:03 29° WNW 22:07:03 29° WNW
Cosmos 2333 Rocket 3.7 22:04:15 10° N 22:08:33 21° ENE 22:09:41 20° ENE
SL-08 RB Rocket 4.0 22:08:52 46° SSW 22:09:57 61° W 22:14:29 10° NNW
H-2A R/B 2.2 22:09:40 42° SSW 22:11:10 63° W 22:16:10 10° NNW
COSMOS 2428 3.5 22:06:33 10° N 22:11:45 36° ENE 22:12:38 34° E
CENTAUR R/B 4.0 22:06:54 10° WSW 22:12:19 36° NW 22:18:27 10° NNE
Lacrosse 5 rocket 1.8 22:09:42 10° NNW 22:13:45 51° NE 22:13:45 51° NE
Cosmos 1125 Rocket 3.6 22:12:45 10° N 22:17:55 59° ENE 22:18:20 57° E
CZ-4C R/B 3.7 22:11:04 10° NNW 22:18:00 42° NE 22:20:58 31° E
ARGOS 4.1 22:19:28 27° SSW 22:21:48 40° W 22:26:52 10° NNW
Cosmos 2297 Rocket 4.1 22:26:09 16° ENE 22:26:09 16° ENE 22:27:45 10° NE
Cosmos 2227 Rocket 3.8 22:29:30 20° ENE 22:29:30 20° ENE 22:31:48 10° NE
Cosmos 1092 Rocket 4.1 22:23:32 10° N 22:29:48 59° E 22:30:34 55° ESE
Nadezhda 4 Rocket 3.9 22:24:55 10° N 22:31:16 89° WSW 22:32:41 57° S
CARTOSAT-1 4.3 22:33:20 45° NE 22:33:20 45° NE 22:36:42 10° N
Cosmos 2322 Rocket 4.1 22:29:09 10° NW 22:33:13 21° W 22:35:43 16° SW
Cosmos 2322 3.6 22:28:27 10° NNW 22:34:11 78° WSW 22:34:53 67° SSW
Landsat 7 3.8 22:36:45 79° NNE 22:36:45 79° NNE 22:41:16 10° N
Cosmos 2237 Rocket 3.9 22:33:32 10° N 22:37:42 20° ENE 22:38:17 20° ENE
Cosmos 1066 Rocket 4.0 22:40:28 73° SW 22:40:56 80° W 22:46:24 10° N
Cosmos 1025 Rocket 3.6 22:41:10 55° WNW 22:41:10 55° WNW 22:45:15 10° N
SL-16 R/B 4.4 22:40:07 10° WNW 22:43:23 16° W 22:45:58 12° SW
Terra 2.2 22:56:06 61° N 22:56:06 61° N 23:00:03 10° NNW
SPOT 5 3.7 22:56:23 39° W 22:56:23 39° W 23:00:11 10° NNW
Cosmos 2026 Rocket 4.0 22:51:57 10° N 22:57:49 61° ENE 22:57:49 61° ENE
Cosmos 2279 Rocket 4.3 22:58:36 53° ENE 22:58:36 53° ENE 23:04:07 10° NNE
Cosmos 2219 3.5 22:58:22 52° WSW 22:59:29 62° WNW 23:05:12 10° NNE
SL-19 R/B 4.5 23:01:37 69° SW 23:02:05 73° WSW 23:08:33 10° NNW
Tiangong 2 4.5 23:04:10 10° NW 23:04:38 13° NW 23:04:38 13° NW
Meteor 1-22 Rocket 4.4 23:03:42 10° N 23:08:09 62° NNE 23:08:09 62° NNE
Cosmos 2142 Rocket 4.4 23:10:31 80° WSW 23:10:39 81° W 23:16:53 10° N
CZ-3 Stage 3 4.1 23:12:51 61° SSW 23:13:38 65° SSE 23:43:06 10° E
CZ-2C R/B 2.9 23:14:16 10° NNE 23:19:09 68° N 23:19:09 68° N
Cosmos 2360 Rocket 4.1 23:18:18 10° WNW 23:22:10 19° W 23:22:32 19° WSW
Cosmos 2219 Rocket 2.5 23:20:26 10° NNW 23:25:04 60° NW 23:25:04 60° NW
SJ 16-02 4.0 23:33:22 10° WNW 23:34:28 12° W 23:34:28 12° W
COSMOS 2455 3.1 23:37:08 66° N 23:37:08 66° N 23:42:24 10° NNE
CZ-2C R/B 4.0 23:38:16 46° WNW 23:38:16 46° WNW 23:42:46 10° NNW
ADEOS Rocket 4.3 23:41:22 10° NNE 23:44:05 25° NE 23:44:05 25° NE
Cosmos 2333 Rocket 3.2 23:47:34 10° NNW 23:51:42 40° WNW 23:51:42 40° WNW
